[[{"header":{"parameterUnit":"m.s-1","parameterCategory":1,"la1":30.2991,"la2":30.254,"lo1":-89.0895,"lo2":-89.0444,"dy":0.0017,"dx":0.0017,"nx":28,"ny":28,"refTime":"2024-09-29T21:00:00:Z","depth":0,"parameterNumber":2,"parameterNumberName":"U-component_of_WINDS"},"data":[0,0,0,0,0,0,0,0,0,0,0,0,0,0,0,0,0,0,0,0,0,0,0,0,0,0,0,0,0,0,0,0,0,0,0,0,0,0,0,0,0,0,0,0,0,0,0,0,0,0,0,0,0,0,0,0,0,0,1.0806,1.0806,0,1.0876,1.0876,1.0877,1.0888,1.0888,1.0887,1.0886,1.0964,1.0967,1.0969,0,0,0,0,0,0,0,0,0,0,0,0,0,1.0688,1.069,1.0806,1.0806,1.0807,1.0875,1.0876,1.0877,1.0888,1.0888,1.0887,1.0886,1.0963,1.0966,1.0969,0,0,0,0,0,0,0,0,0,0,0,0,0,1.0747,1.0691,1.0805,1.0821,1.0823,1.0875,1.0876,1.0878,1.0889,1.0888,1.0887,1.0886,1.0962,1.0966,1.097,1.1013,0,0,1.0982,1.0984,0,0,0,0,0,0,0,0,1.0744,1.0751,1.0818,1.082,1.0822,1.0872,1.0864,1.0923,1.0889,1.0864,1.0886,1.0885,1.0935,1.0941,1.0956,1.1017,1.102,1.0982,1.0985,1.0986,1.0988,0,0,0,0,0,0,0,1.0739,1.0748,1.0833,1.0819,1.0821,1.0827,1.0834,1.0875,1.0904,1.0866,1.0867,1.0875,1.0936,1.0952,1.0958,1.1022,1.0982,1.0986,1.0988,1.099,1.1125,1.1126,0,0,0,0,0,0,1.0732,1.0745,1.0831,1.0836,1.078,1.0829,1.0838,1.0857,1.0903,1.0909,1.0875,1.0875,1.0946,1.0953,1.0961,1.1017,1.0986,1.099,1.0992,1.1124,1.1126,1.1127,0,0,0,0,0,0,1.0729,1.0739,1.0828,1.079,1.0802,1.0832,1.0854,1.0859,1.0876,1.091,1.0916,1.0887,1.0945,1.0955,1.1001,1.102,1.0992,1.0996,1.1123,1.1125,1.1126,1.1128,0,0,0,0,0,0,1.0726,1.0738,1.0753,1.0791,1.0804,1.0865,1.0855,1.0861,1.0882,1.0882,1.0923,1.0928,1.0945,1.0995,1.1005,1.1025,1.0999,1.1121,1.1123,1.1126,1.1126,1.1129,1.1132,0,0,0,0,0,1.0721,1.0752,1.0754,1.0764,1.0823,1.0866,1.0874,1.0891,1.0883,1.09,1.0923,1.0927,1.1016,1.0999,1.101,1.1032,1.112,1.1123,1.1125,1.1125,1.1129,1.1132,0,0,0,0,0,0,1.0717,1.0757,1.076,1.0802,1.083,1.0867,1.0889,1.0894,1.0926,1.0925,1.0947,1.0957,1.1001,1.1021,1.1002,1.1078,1.1068,1.1073,1.1063,1.1067,1.107,1.1065,1.1002,0,0,0,0,0,1.0721,1.075,1.0784,1.0819,1.0832,1.0858,1.0877,1.0888,1.0919,1.0931,1.0957,1.0989,1.1024,1.1047,1.1081,1.1129,1.114,1.115,1.1153,1.1155,1.116,1.119,1.1195,1.1136,1.1136,1.1136,0,0,1.0729,1.0755,1.0772,1.0818,1.0841,1.0873,1.0868,1.0902,1.0927,1.0937,1.0981,1.1002,1.1039,1.1086,1.1109,1.1104,1.1179,1.1159,1.116,1.1164,1.1193,1.1199,1.1204,1.1138,1.1137,1.1137,0,0,1.0762,1.0782,1.0815,1.0838,1.0872,1.089,1.0897,1.0934,1.0948,1.0992,1.1001,1.1033,1.1092,1.1118,1.114,1.1184,1.1191,1.1195,1.1211,1.124,1.1245,1.1249,1.1267,1.1273,1.1199,1.1199,1.1199,0,1.0768,1.0815,1.0831,1.0865,1.0886,1.0896,1.093,1.0952,1.0997,1.1013,1.1007,1.1083,1.1108,1.1164,1.1175,1.1191,1.1203,1.1191,1.1242,1.1247,1.1251,1.1268,1.1275,1.12,1.12,1.12,1.12,0,1.0823,1.0855,1.0877,1.0919,1.0943,1.0977,1.1,1.1023,1.1033,1.1051,1.1098,1.1129,1.1171,1.1185,1.1195,1.1242,1.1239,1.1237,1.1227,1.1257,1.1274,1.128,1.12,1.12,1.12,1.12,0,0,1.0853,1.0904,1.0912,1.0932,1.0972,1.0999,1.1034,1.1073,1.1094,1.1125,1.1157,1.1208,1.1207,1.1232,1.1245,1.127,1.1306,1.1266,1.1267,1.1274,1.1364,1.1365,1.1372,1.131,1.1312,1.1313,1.1361,0,1.0891,1.0952,1.0969,1.1022,1.1054,1.1065,1.1097,1.1126,1.1145,1.1177,1.1199,1.1236,1.1231,1.1246,1.1271,1.1296,1.1325,1.1293,1.1343,1.1345,1.1334,1.1381,1.1382,1.1426,1.1368,1.1369,1.1369,0,1.0943,1.0974,1.103,1.1068,1.1082,1.111,1.1148,1.1178,1.1212,1.1225,1.1253,1.1264,1.1305,1.1292,1.135,1.1328,1.135,1.1366,1.1368,1.1374,1.1359,1.139,1.144,1.1447,1.138,1.1379,1.1378,0,1.0962,1.1018,1.1059,1.1076,1.112,1.114,1.116,1.1194,1.1217,1.1252,1.1268,1.1307,1.1329,1.1361,1.1384,1.1372,1.1441,1.1429,1.1455,1.1454,1.1469,1.1468,1.1525,1.1481,1.1481,1.1481,1.1481,0,1.1003,1.1037,1.1069,1.1094,1.1134,1.1154,1.1194,1.1215,1.1245,1.1277,1.1289,1.1319,1.1347,1.1382,1.1401,1.1447,1.1457,1.147,1.1475,1.147,1.1468,1.1485,1.1483,1.1482,1.1482,1.1482,1.1481,0,1.1031,1.1052,1.1099,1.1137,1.1148,1.1176,1.121,1.1237,1.1257,1.1297,1.1308,1.134,1.1382,1.1408,1.1461,1.1474,1.1526,1.1529,1.1514,1.1516,1.1541,1.1538,1.1611,1.1623,1.157,1.157,1.1571,0,1.1056,1.1082,1.1124,1.1145,1.1165,1.1199,1.1223,1.1245,1.127,1.1313,1.1335,1.1377,1.1412,1.1479,1.1509,1.1551,1.1556,1.1579,1.1563,1.1557,1.1559,1.1557,1.1561,1.1582,1.1582,1.1583,1.1583,0,1.1099,1.1109,1.1141,1.1179,1.1207,1.1238,1.1269,1.1286,1.1314,1.1342,1.1384,1.1411,1.1465,1.1508,1.1553,1.1576,1.1586,1.1588,1.1596,1.1592,1.1582,1.1589,1.1523,1.1586,1.1586,1.1586,1.1585,1.1585,1.1127,1.1152,1.1186,1.1223,1.1248,1.1277,1.1305,1.1328,1.1363,1.1408,1.142,1.1465,1.1502,1.1562,1.1587,1.1624,1.1621,1.1633,1.1636,1.1639,1.164,1.1575,1.1632,1.1632,1.1632,1.1632,1.1632,0,1.1173,1.1195,1.1229,1.1271,1.1301,1.1305,1.134,1.1366,1.1404,1.1437,1.1471,1.1521,1.1564,1.1597,1.1641,1.1665,1.167,1.1676,1.1675,1.1681,1.1639,1.1628,1.1671,1.1671,1.1671,1.1671,1.1671,1.1671,1.12,1.1243,1.1257,1.1315,1.1337,1.138,1.14,1.1428,1.1455,1.1509,1.1544,1.1565,1.1599,1.1646,1.1686,1.1695,1.1711,1.1716,1.1727,1.1688,1.1683,1.1679,1.1669,1.1719,1.1719,1.1765,1.1765,1.1766]},{"header":{"parameterUnit":"m.s-1","parameterCategory":1,"la1":30.2991,"la2":30.254,"lo1":-89.0895,"lo2":-89.0444,"dy":0.0017,"dx":0.0017,"nx":28,"ny":28,"refTime":"2024-09-29T21:00:00:Z","depth":0,"parameterNumber":3,"parameterNumberName":"V-component_of_WINDS"},"data":[0,0,0,0,0,0,0,0,0,0,0,0,0,0,0,0,0,0,0,0,0,0,0,0,0,0,0,0,0,0,0,0,0,0,0,0,0,0,0,0,0,0,0,0,0,0,0,0,0,0,0,0,0,0,0,0,0,0,0.2839,0.2839,0,0.2849,0.2849,0.2849,0.2866,0.2866,0.2866,0.2866,0.2876,0.2876,0.2876,0,0,0,0,0,0,0,0,0,0,0,0,0,0.2831,0.2831,0.2839,0.2839,0.284,0.2849,0.2849,0.2849,0.2865,0.2866,0.2866,0.2867,0.2876,0.2876,0.2876,0,0,0,0,0,0,0,0,0,0,0,0,0,0.2837,0.2831,0.2839,0.2849,0.285,0.2849,0.2849,0.285,0.2865,0.2866,0.2866,0.2867,0.2876,0.2876,0.2875,0.2866,0,0,0.2875,0.2875,0,0,0,0,0,0,0,0,0.2837,0.2837,0.2847,0.2848,0.2849,0.2857,0.285,0.2855,0.2865,0.2859,0.2866,0.2867,0.2869,0.2869,0.287,0.2867,0.2867,0.2875,0.2875,0.2875,0.2875,0,0,0,0,0,0,0,0.2836,0.2837,0.2843,0.2847,0.2848,0.2851,0.2853,0.2851,0.2861,0.286,0.2861,0.2862,0.2869,0.287,0.2871,0.2867,0.2875,0.2875,0.2875,0.2875,0.2853,0.2852,0,0,0,0,0,0,0.2835,0.2836,0.2843,0.2844,0.2844,0.2851,0.2853,0.2854,0.2862,0.2863,0.2862,0.2863,0.287,0.2871,0.2871,0.2858,0.2875,0.2875,0.2875,0.2853,0.2853,0.2852,0,0,0,0,0,0,0.2834,0.2835,0.2843,0.284,0.2841,0.2851,0.2852,0.2854,0.2855,0.2863,0.2865,0.2861,0.287,0.2871,0.2867,0.2859,0.2875,0.2875,0.2854,0.2853,0.2852,0.2834,0,0,0,0,0,0,0.2834,0.2835,0.2833,0.284,0.2841,0.2839,0.2852,0.2854,0.2855,0.2856,0.2863,0.2864,0.2871,0.2867,0.2867,0.2859,0.2875,0.2855,0.2854,0.2853,0.2836,0.2833,0.2831,0,0,0,0,0,0.2834,0.2828,0.2832,0.2833,0.2839,0.2839,0.2839,0.2848,0.2854,0.2851,0.2855,0.2864,0.286,0.2866,0.2866,0.2859,0.2855,0.2854,0.2853,0.2837,0.2834,0.2831,0,0,0,0,0,0,0.282,0.2829,0.2834,0.2831,0.2834,0.2841,0.2838,0.2844,0.2846,0.2847,0.2857,0.2858,0.2852,0.2855,0.2861,0.2848,0.2859,0.2857,0.2846,0.2843,0.2841,0.284,0.2875,0,0,0,0,0,0.2816,0.2816,0.2824,0.282,0.2821,0.2829,0.2829,0.2835,0.2838,0.284,0.2844,0.2847,0.2845,0.2845,0.2845,0.2836,0.2836,0.2831,0.2828,0.2826,0.2825,0.2817,0.2814,0.2848,0.2848,0.2848,0,0,0.2809,0.2814,0.2813,0.2817,0.282,0.2818,0.283,0.2828,0.2826,0.2839,0.2835,0.2838,0.2841,0.2834,0.2831,0.2836,0.2815,0.2825,0.2823,0.2823,0.2816,0.2812,0.281,0.2847,0.2847,0.2847,0,0,0.2795,0.2799,0.2795,0.2797,0.2801,0.2806,0.2804,0.281,0.2813,0.2808,0.2817,0.2814,0.2813,0.2814,0.2814,0.2796,0.2803,0.2796,0.2783,0.2775,0.2773,0.277,0.2761,0.2758,0.2794,0.2794,0.2794,0,0.2785,0.2784,0.2792,0.2789,0.2789,0.28,0.2794,0.2795,0.2799,0.2798,0.2804,0.28,0.2804,0.2795,0.279,0.2791,0.2788,0.2795,0.2772,0.277,0.2768,0.2759,0.2756,0.2793,0.2793,0.2794,0.2794,0,0.277,0.2769,0.2765,0.2767,0.2766,0.2762,0.2768,0.2766,0.2771,0.2775,0.2768,0.2772,0.2771,0.2769,0.2775,0.2761,0.2763,0.2771,0.2781,0.2763,0.2756,0.2753,0.2792,0.2792,0.2793,0.2793,0,0,0.275,0.2754,0.2752,0.2752,0.2755,0.2753,0.2748,0.2747,0.2744,0.2745,0.2739,0.2736,0.2742,0.2742,0.2747,0.2741,0.2723,0.2749,0.2749,0.2742,0.2704,0.2697,0.2694,0.2727,0.2727,0.2726,0.2703,0,0.2735,0.2727,0.2733,0.2723,0.272,0.2728,0.2723,0.2723,0.2726,0.2722,0.2725,0.2721,0.2731,0.273,0.2724,0.2726,0.2715,0.2728,0.272,0.272,0.2718,0.269,0.2684,0.2662,0.27,0.27,0.2699,0,0.2718,0.2717,0.2707,0.2707,0.2706,0.2701,0.2699,0.2696,0.2695,0.2697,0.2695,0.2701,0.2694,0.2704,0.2693,0.2701,0.2698,0.2698,0.2697,0.2696,0.2708,0.2686,0.2655,0.2651,0.2695,0.2695,0.2696,0,0.2702,0.2697,0.269,0.2689,0.2691,0.2686,0.2687,0.2686,0.2684,0.2681,0.2679,0.2676,0.2674,0.267,0.2673,0.2681,0.266,0.2672,0.266,0.266,0.2655,0.2655,0.2621,0.2655,0.2655,0.2656,0.2656,0,0.2684,0.2677,0.2682,0.2677,0.2668,0.2674,0.2664,0.2665,0.2664,0.2658,0.2665,0.2659,0.2665,0.2659,0.2662,0.265,0.265,0.2649,0.265,0.2648,0.2648,0.2645,0.2646,0.2655,0.2655,0.2655,0.2655,0,0.2665,0.2668,0.266,0.266,0.266,0.2653,0.2653,0.2647,0.2649,0.2641,0.2639,0.2642,0.2634,0.2637,0.2631,0.2632,0.2616,0.262,0.2616,0.2617,0.2604,0.2604,0.2566,0.256,0.26,0.2599,0.2599,0,0.2654,0.2648,0.2647,0.2643,0.2642,0.2637,0.2633,0.2637,0.2634,0.263,0.2624,0.2617,0.2612,0.26,0.26,0.2593,0.2596,0.2583,0.2595,0.2592,0.2593,0.2592,0.259,0.258,0.258,0.2579,0.2579,0,0.2633,0.2633,0.2629,0.2623,0.2619,0.2615,0.2612,0.2608,0.2611,0.2606,0.2598,0.2594,0.2584,0.2577,0.257,0.2569,0.2573,0.2575,0.2571,0.2569,0.2566,0.2565,0.2608,0.2576,0.2576,0.2576,0.2577,0.2577,0.2616,0.261,0.2607,0.26,0.2597,0.2593,0.2587,0.2586,0.258,0.2572,0.2575,0.2565,0.256,0.2552,0.2549,0.254,0.2545,0.2541,0.2539,0.2538,0.2535,0.2568,0.2539,0.2539,0.254,0.254,0.254,0,0.2593,0.2591,0.2584,0.2578,0.2572,0.2576,0.2572,0.2566,0.2557,0.2553,0.2546,0.2535,0.2526,0.2524,0.2516,0.2508,0.251,0.2506,0.2506,0.2505,0.2532,0.2535,0.2504,0.2504,0.2504,0.2504,0.2504,0.2504,0.2581,0.257,0.2569,0.2555,0.2553,0.2543,0.2539,0.2534,0.253,0.2517,0.2509,0.2508,0.2503,0.2493,0.2485,0.2484,0.2479,0.2474,0.2474,0.25,0.2503,0.2507,0.2509,0.2473,0.2473,0.2447,0.2446,0.2446]}]]